UAL1754 KMFR-KSFO

Flight info

Callsign UAL1754
Flight time 0h 54m
Altitude 33000
Route JKSN1 OED MLBEC BDEGA4
Aircraft A320/M-SDE3FGHIRWY/LB1

Departure

Time 2026-04-17 04:01
Airport Rogue Valley International-Medford Airport (KMFR)

Arrival

Time 2026-04-17 04:55
Airport San Francisco International Airport (KSFO)
Time Latitude Longitude Altitude Speed Heading
2026-04-17 03:27 42.36901 -122.87337 1325 ft 0 kts 247°
2026-04-17 03:51 42.36902 -122.87337 1325 ft 1 kts 247°
2026-04-17 03:51 42.36907 -122.87319 1327 ft 3 kts 244°
2026-04-17 03:51 42.36916 -122.87295 1328 ft 3 kts 237°
2026-04-17 03:52 42.36928 -122.87274 1329 ft 3 kts 220°
2026-04-17 03:52 42.36944 -122.87261 1327 ft 3 kts 182°
2026-04-17 03:52 42.36953 -122.87262 1327 ft 0 kts 159°
2026-04-17 03:57 42.36944 -122.87248 1325 ft 3 kts 119°
2026-04-17 03:57 42.36935 -122.87214 1325 ft 4 kts 110°
2026-04-17 03:57 42.36912 -122.87183 1326 ft 5 kts 152°
2026-04-17 03:57 42.36872 -122.87162 1326 ft 8 kts 159°
2026-04-17 03:58 42.36811 -122.87130 1326 ft 11 kts 159°
2026-04-17 03:58 42.36724 -122.87085 1325 ft 15 kts 158°
2026-04-17 03:58 42.36619 -122.87030 1325 ft 17 kts 159°
2026-04-17 03:58 42.36503 -122.86970 1329 ft 17 kts 158°
2026-04-17 03:59 42.36395 -122.86912 1334 ft 16 kts 159°
2026-04-17 03:59 42.36354 -122.86840 1336 ft 10 kts 78°
2026-04-17 03:59 42.36392 -122.86757 1337 ft 11 kts 12°
2026-04-17 03:59 42.36434 -122.86773 1336 ft 2 kts 337°
2026-04-17 04:00 42.36530 -122.86826 1334 ft 44 kts 339°
2026-04-17 04:00 42.37032 -122.87086 1334 ft 107 kts 339°
2026-04-17 04:00 42.37889 -122.87535 1324 ft 154 kts 339°
2026-04-17 04:00 42.38882 -122.88047 1874 ft 156 kts 339°
2026-04-17 04:01 42.39932 -122.88571 2434 ft 164 kts 340°
2026-04-17 04:01 42.41025 -122.89138 2982 ft 173 kts 341°
2026-04-17 04:01 42.42236 -122.89642 3313 ft 191 kts 345°
2026-04-17 04:01 42.43610 -122.90153 3519 ft 219 kts 346°
2026-04-17 04:02 42.45163 -122.90715 3891 ft 243 kts 346°
2026-04-17 04:02 42.46854 -122.91196 4698 ft 245 kts 352°
2026-04-17 04:02 42.48530 -122.91551 5720 ft 245 kts 351°
2026-04-17 04:02 42.50223 -122.92007 6539 ft 250 kts 349°
2026-04-17 04:03 42.51922 -122.92576 7266 ft 259 kts 343°
2026-04-17 04:03 42.53525 -122.93824 7819 ft 275 kts 316°
2026-04-17 04:03 42.54556 -122.96045 8567 ft 284 kts 290°
2026-04-17 04:03 42.54829 -122.98698 9460 ft 289 kts 268°
2026-04-17 04:04 42.54305 -123.01354 10248 ft 298 kts 244°
2026-04-17 04:04 42.52959 -123.03517 10862 ft 310 kts 218°
2026-04-17 04:04 42.50914 -123.04738 10977 ft 337 kts 188°
2026-04-17 04:04 42.48504 -123.04858 11159 ft 358 kts 179°
2026-04-17 04:05 42.45970 -123.04767 11623 ft 368 kts 177°
2026-04-17 04:05 42.43392 -123.04622 12143 ft 374 kts 177°
2026-04-17 04:05 42.40772 -123.04477 12712 ft 381 kts 178°
2026-04-17 04:05 42.38098 -123.04354 13316 ft 387 kts 179°
2026-04-17 04:06 42.35410 -123.04260 13935 ft 393 kts 179°
2026-04-17 04:06 42.32652 -123.04181 14446 ft 400 kts 179°
2026-04-17 04:06 42.29821 -123.04111 14994 ft 405 kts 180°
2026-04-17 04:06 42.27022 -123.04042 15535 ft 410 kts 180°
2026-04-17 04:07 42.24152 -123.03974 16069 ft 414 kts 181°
2026-04-17 04:07 42.21263 -123.03907 16629 ft 418 kts 181°
2026-04-17 04:07 42.18337 -123.03841 17190 ft 422 kts 181°
2026-04-17 04:07 42.15378 -123.03773 17760 ft 427 kts 181°
2026-04-17 04:08 42.12390 -123.03701 18341 ft 432 kts 181°
2026-04-17 04:08 42.09368 -123.03626 18846 ft 437 kts 181°
2026-04-17 04:08 42.06312 -123.03551 19362 ft 440 kts 182°
2026-04-17 04:08 42.03234 -123.03474 19862 ft 444 kts 182°
2026-04-17 04:09 42.00126 -123.03396 20382 ft 449 kts 182°
2026-04-17 04:09 41.96989 -123.03318 20926 ft 452 kts 182°
2026-04-17 04:09 41.93875 -123.03243 21415 ft 455 kts 182°
2026-04-17 04:09 41.90686 -123.03163 21958 ft 458 kts 182°
2026-04-17 04:10 41.87490 -123.03080 22468 ft 461 kts 182°
2026-04-17 04:10 41.84275 -123.02993 22909 ft 464 kts 182°
2026-04-17 04:10 41.81024 -123.02908 23385 ft 468 kts 183°
2026-04-17 04:10 41.77759 -123.02823 23843 ft 470 kts 183°
2026-04-17 04:11 41.74473 -123.02740 24213 ft 474 kts 183°
2026-04-17 04:11 41.71167 -123.02661 24537 ft 476 kts 183°
2026-04-17 04:11 41.67847 -123.02579 24929 ft 479 kts 183°
2026-04-17 04:11 41.64539 -123.02496 25278 ft 481 kts 183°
2026-04-17 04:12 41.61176 -123.02413 25597 ft 484 kts 183°
2026-04-17 04:12 41.57807 -123.02326 25981 ft 484 kts 183°
2026-04-17 04:12 41.54429 -123.02238 26328 ft 486 kts 183°
2026-04-17 04:12 41.51026 -123.02151 26645 ft 488 kts 183°
2026-04-17 04:13 41.47623 -123.02070 26952 ft 491 kts 183°
2026-04-17 04:13 41.44194 -123.01993 27306 ft 494 kts 183°
2026-04-17 04:13 41.40747 -123.01915 27615 ft 496 kts 183°
2026-04-17 04:13 41.37322 -123.01834 27919 ft 498 kts 183°
2026-04-17 04:14 41.33851 -123.01748 28251 ft 501 kts 183°
2026-04-17 04:14 41.30350 -123.01660 28510 ft 503 kts 183°
2026-04-17 04:14 41.26843 -123.01572 28863 ft 505 kts 182°
2026-04-17 04:14 41.23330 -123.01482 29160 ft 506 kts 182°
2026-04-17 04:15 41.20992 -123.01421 29429 ft 506 kts 182°
2026-04-17 04:15 41.17457 -123.01330 29914 ft 505 kts 182°
2026-04-17 04:15 41.13944 -123.01239 30362 ft 505 kts 183°
2026-04-17 04:15 41.09294 -123.01125 30894 ft 503 kts 183°
2026-04-17 04:16 41.05800 -123.01043 31247 ft 502 kts 183°
2026-04-17 04:16 41.03439 -123.00991 31525 ft 502 kts 183°
2026-04-17 04:16 40.99946 -123.00915 31932 ft 500 kts 183°
2026-04-17 04:16 40.96476 -123.00833 32367 ft 499 kts 183°
2026-04-17 04:17 40.93053 -123.00746 32814 ft 497 kts 184°
2026-04-17 04:17 40.89594 -123.00656 33186 ft 497 kts 184°
2026-04-17 04:17 40.86117 -123.00567 33278 ft 500 kts 184°
2026-04-17 04:18 40.79147 -123.00401 33272 ft 502 kts 184°
2026-04-17 04:18 40.72147 -123.00240 33266 ft 502 kts 184°
2026-04-17 04:19 40.65166 -123.00074 33268 ft 500 kts 184°
2026-04-17 04:19 40.58206 -122.99907 33264 ft 500 kts 184°
2026-04-17 04:20 40.51295 -122.99735 33266 ft 499 kts 184°
2026-04-17 04:20 40.44341 -122.99563 33271 ft 499 kts 184°
2026-04-17 04:21 40.37387 -122.99393 33239 ft 499 kts 184°
2026-04-17 04:21 40.30439 -122.99232 33258 ft 499 kts 184°
2026-04-17 04:22 40.23493 -122.99069 33248 ft 499 kts 184°
2026-04-17 04:22 40.16558 -122.98898 33243 ft 498 kts 184°
2026-04-17 04:23 40.09617 -122.98739 33236 ft 498 kts 184°
2026-04-17 04:23 40.02683 -122.98576 33222 ft 498 kts 184°
2026-04-17 04:24 39.95761 -122.98413 33212 ft 497 kts 184°
2026-04-17 04:24 39.88895 -122.98253 33218 ft 496 kts 184°
2026-04-17 04:25 39.81981 -122.98082 33210 ft 496 kts 184°
2026-04-17 04:25 39.75080 -122.97916 33198 ft 496 kts 184°
2026-04-17 04:26 39.68193 -122.97758 33187 ft 495 kts 184°
2026-04-17 04:26 39.61328 -122.97604 33154 ft 495 kts 184°
2026-04-17 04:27 39.54432 -122.97436 33176 ft 494 kts 184°
2026-04-17 04:27 39.47555 -122.97285 33179 ft 493 kts 184°
2026-04-17 04:28 39.40685 -122.97126 33154 ft 493 kts 184°
2026-04-17 04:28 39.33821 -122.96963 33168 ft 492 kts 184°
2026-04-17 04:29 39.26983 -122.96810 33169 ft 491 kts 184°
2026-04-17 04:29 39.20187 -122.96653 33167 ft 490 kts 184°
2026-04-17 04:30 39.13364 -122.96489 33168 ft 490 kts 184°
2026-04-17 04:30 39.06534 -122.96335 33166 ft 490 kts 184°
2026-04-17 04:31 38.99711 -122.96181 33153 ft 489 kts 184°
2026-04-17 04:31 38.92898 -122.96022 33156 ft 489 kts 184°
2026-04-17 04:32 38.86133 -122.95480 33110 ft 495 kts 173°
2026-04-17 04:32 38.82759 -122.94516 32819 ft 496 kts 171°
2026-04-17 04:32 38.79400 -122.93511 32443 ft 495 kts 171°
2026-04-17 04:32 38.76019 -122.92502 31330 ft 503 kts 170°
2026-04-17 04:33 38.72625 -122.91492 30941 ft 494 kts 170°
2026-04-17 04:33 38.69285 -122.90497 30422 ft 489 kts 170°
2026-04-17 04:33 38.65978 -122.89517 29865 ft 485 kts 170°
2026-04-17 04:33 38.62717 -122.88553 28977 ft 477 kts 170°
2026-04-17 04:34 38.56321 -122.86680 27429 ft 468 kts 170°
2026-04-17 04:34 38.53169 -122.85753 26506 ft 462 kts 169°
2026-04-17 04:34 38.50062 -122.84837 25885 ft 454 kts 169°
2026-04-17 04:35 38.46991 -122.83935 25340 ft 450 kts 169°
2026-04-17 04:35 38.43947 -122.83042 24801 ft 449 kts 169°
2026-04-17 04:35 38.40888 -122.82142 24258 ft 449 kts 169°
2026-04-17 04:35 38.37894 -122.81261 23761 ft 447 kts 169°
2026-04-17 04:36 38.34870 -122.80374 23318 ft 443 kts 169°
2026-04-17 04:36 38.31895 -122.79500 22584 ft 435 kts 169°
2026-04-17 04:36 38.28966 -122.78643 21994 ft 429 kts 169°
2026-04-17 04:36 38.26052 -122.77793 21474 ft 429 kts 169°
2026-04-17 04:37 38.23138 -122.76943 21023 ft 427 kts 169°
2026-04-17 04:37 38.20248 -122.76101 20477 ft 427 kts 169°
2026-04-17 04:37 38.17375 -122.75266 20156 ft 420 kts 169°
2026-04-17 04:37 38.14545 -122.74445 19526 ft 416 kts 169°
2026-04-17 04:38 38.11725 -122.73626 18921 ft 414 kts 169°
2026-04-17 04:38 38.08942 -122.72821 18600 ft 407 kts 169°
2026-04-17 04:38 38.06233 -122.72034 17878 ft 401 kts 169°
2026-04-17 04:38 38.03538 -122.71249 17229 ft 395 kts 169°
2026-04-17 04:39 38.00850 -122.70467 16754 ft 394 kts 169°
2026-04-17 04:39 37.98187 -122.69697 16271 ft 392 kts 169°
2026-04-17 04:39 37.95534 -122.68934 15790 ft 389 kts 168°
2026-04-17 04:39 37.92897 -122.68169 15305 ft 387 kts 167°
2026-04-17 04:40 37.90360 -122.67019 14828 ft 386 kts 154°
2026-04-17 04:40 37.88064 -122.65286 14359 ft 384 kts 142°
2026-04-17 04:40 37.86004 -122.63139 13873 ft 382 kts 138°
2026-04-17 04:40 37.84002 -122.61008 13409 ft 379 kts 139°
2026-04-17 04:41 37.81986 -122.58873 12955 ft 375 kts 139°
2026-04-17 04:41 37.79995 -122.56775 12510 ft 372 kts 139°
2026-04-17 04:41 37.78026 -122.54700 12243 ft 362 kts 138°
2026-04-17 04:41 37.76135 -122.52701 12090 ft 343 kts 138°
2026-04-17 04:42 37.74340 -122.50808 11654 ft 331 kts 138°
2026-04-17 04:42 37.72590 -122.48961 11170 ft 324 kts 138°
2026-04-17 04:42 37.70890 -122.47161 10988 ft 318 kts 138°
2026-04-17 04:42 37.69198 -122.45356 11010 ft 319 kts 137°
2026-04-17 04:43 37.67504 -122.43547 11012 ft 319 kts 137°
2026-04-17 04:43 37.65787 -122.41715 11010 ft 318 kts 137°
2026-04-17 04:43 37.64177 -122.39997 11010 ft 318 kts 137°
2026-04-17 04:43 37.62480 -122.38186 11009 ft 320 kts 137°
2026-04-17 04:44 37.60681 -122.36517 11012 ft 322 kts 146°
2026-04-17 04:44 37.58732 -122.35113 10876 ft 323 kts 151°
2026-04-17 04:44 37.56723 -122.33859 10608 ft 320 kts 153°
2026-04-17 04:44 37.54721 -122.32675 10326 ft 317 kts 154°
2026-04-17 04:45 37.52733 -122.31495 10037 ft 314 kts 153°
2026-04-17 04:45 37.50770 -122.30298 9709 ft 312 kts 152°
2026-04-17 04:45 37.48832 -122.29082 9393 ft 310 kts 151°
2026-04-17 04:45 37.46910 -122.27854 9048 ft 308 kts 151°
2026-04-17 04:46 37.45043 -122.26607 8691 ft 307 kts 144°
2026-04-17 04:46 37.43559 -122.24766 8361 ft 297 kts 117°
2026-04-17 04:46 37.42748 -122.22430 8040 ft 289 kts 104°
2026-04-17 04:46 37.42120 -122.20035 7724 ft 287 kts 103°
2026-04-17 04:47 37.41515 -122.17656 7433 ft 285 kts 103°
2026-04-17 04:47 37.40916 -122.15294 7148 ft 282 kts 103°
2026-04-17 04:47 37.40435 -122.12923 6856 ft 275 kts 89°
2026-04-17 04:47 37.40718 -122.10640 6571 ft 260 kts 61°
2026-04-17 04:48 37.41801 -122.08900 6250 ft 250 kts 33°
2026-04-17 04:48 37.43375 -122.08119 5907 ft 245 kts
2026-04-17 04:48 37.45076 -122.08231 5568 ft 245 kts 354°
2026-04-17 04:48 37.46764 -122.08533 5251 ft 244 kts 352°
2026-04-17 04:49 37.48338 -122.09303 4954 ft 246 kts 328°
2026-04-17 04:49 37.49670 -122.10643 4541 ft 245 kts 323°
2026-04-17 04:49 37.50947 -122.12056 4080 ft 243 kts 321°
2026-04-17 04:49 37.51951 -122.13790 3739 ft 249 kts 304°
2026-04-17 04:50 37.52730 -122.15736 3420 ft 249 kts 303°
2026-04-17 04:50 37.53520 -122.17670 3107 ft 247 kts 304°
2026-04-17 04:50 37.54320 -122.19572 2791 ft 242 kts 304°
2026-04-17 04:50 37.55109 -122.21436 2483 ft 241 kts 303°
2026-04-17 04:51 37.55884 -122.23276 2178 ft 231 kts 303°
2026-04-17 04:51 37.56611 -122.25005 1897 ft 215 kts 302°
2026-04-17 04:51 37.57291 -122.26618 1625 ft 201 kts 302°
2026-04-17 04:51 37.57926 -122.28125 1389 ft 188 kts 302°
2026-04-17 04:52 37.58517 -122.29526 1136 ft 174 kts 301°
2026-04-17 04:52 37.59051 -122.30797 941 ft 152 kts 300°
2026-04-17 04:52 37.59518 -122.31906 740 ft 137 kts 299°
2026-04-17 04:52 37.59954 -122.32940 572 ft 132 kts 297°
2026-04-17 04:53 37.60379 -122.33946 398 ft 129 kts 297°
2026-04-17 04:53 37.60797 -122.34935 235 ft 126 kts 297°
2026-04-17 04:53 37.61203 -122.35909 69 ft 126 kts 297°
2026-04-17 04:55 37.61948 -122.37958 24 ft 3 kts 226°
2026-04-17 04:55 37.61925 -122.37983 22 ft 7 kts 206°
2026-04-17 04:55 37.61865 -122.37991 22 ft 11 kts 168°
2026-04-17 04:56 37.61811 -122.37967 23 ft 1 kts 168°
2026-04-17 04:56 37.61807 -122.37975 22 ft 2 kts 227°
2026-04-17 04:56 37.61796 -122.38008 22 ft 6 kts 257°
2026-04-17 04:56 37.61787 -122.38060 22 ft 3 kts 258°
2026-04-17 04:57 37.61785 -122.38071 22 ft 0 kts 258°